owner,sensor,date,latitude,longitude,vertical_datum,mass_concentration_of_oxygen_in_sea_water,qcFlag 
NERRS,ioos:station:NOAA.NERRS:rkblhwq:1,2017-04-01T00:45:00Z,26.0257,-81.7332,1.05,5.7,1111122 
NERRS,ioos:station:NOAA.NERRS:rkblhwq:1,2017-04-01T01:45:00Z,26.0257,-81.7332,0.89,5.5,1111122 
NERRS,ioos:station:NOAA.NERRS:rkblhwq:1,2017-04-01T02:45:00Z,26.0257,-81.7332,0.75,5.3,1111122 
NERRS,ioos:station:NOAA.NERRS:rkblhwq:1,2017-04-01T03:45:00Z,26.0257,-81.7332,0.66,5.1,1111122 
NERRS,ioos:station:NOAA.NERRS:rkblhwq:1,2017-04-01T04:45:00Z,26.0257,-81.7332,0.69,5.2,1111122 
NERRS,ioos:station:NOAA.NERRS:rkblhwq:1,2017-04-01T05:45:00Z,26.0257,-81.7332,0.81,5.1,1111122 
NERRS,ioos:station:NOAA.NERRS:rkblhwq:1,2017-04-01T06:45:00Z,26.0257,-81.7332,0.97,5.2,1111122 
NERRS,ioos:station:NOAA.NERRS:rkblhwq:1,2017-04-01T07:45:00Z,26.0257,-81.7332,1.13,5.2,1111122 
NERRS,ioos:station:NOAA.NERRS:rkblhwq:1,2017-04-01T08:45:00Z,26.0257,-81.7332,1.27,5.0,1111122 
NERRS,ioos:station:NOAA.NERRS:rkblhwq:1,2017-04-01T09:45:00Z,26.0257,-81.7332,1.35,3.8,1111122 
NERRS,ioos:station:NOAA.NERRS:rkblhwq:1,2017-04-01T10:45:00Z,26.0257,-81.7332,1.31,4.8,1111122 
NERRS,ioos:station:NOAA.NERRS:rkblhwq:1,2017-04-01T11:45:00Z,26.0257,-81.7332,1.2,4.8,1111122 
NERRS,ioos:station:NOAA.NERRS:rkblhwq:1,2017-04-01T12:45:00Z,26.0257,-81.7332,1.1,4.5,1111122 
NERRS,ioos:station:NOAA.NERRS:rkblhwq:1,2017-04-01T13:45:00Z,26.0257,-81.7332,1.0,4.7,1111122 
NERRS,ioos:station:NOAA.NERRS:rkblhwq:1,2017-04-01T14:45:00Z,26.0257,-81.7332,0.92,4.9,1111122 
NERRS,ioos:station:NOAA.NERRS:rkblhwq:1,2017-04-01T15:45:00Z,26.0257,-81.7332,0.9,5.1,1111122 
NERRS,ioos:station:NOAA.NERRS:rkblhwq:1,2017-04-01T16:45:00Z,26.0257,-81.7332,0.98,5.8,1111122 
NERRS,ioos:station:NOAA.NERRS:rkblhwq:1,2017-04-01T17:45:00Z,26.0257,-81.7332,1.12,6.1,1111122 
NERRS,ioos:station:NOAA.NERRS:rkblhwq:1,2017-04-01T18:45:00Z,26.0257,-81.7332,1.26,6.4,1111122 
NERRS,ioos:station:NOAA.NERRS:rkblhwq:1,2017-04-01T19:45:00Z,26.0257,-81.7332,1.38,6.7,1111122 
NERRS,ioos:station:NOAA.NERRS:rkblhwq:1,2017-04-01T20:45:00Z,26.0257,-81.7332,1.46,6.6,1111122 
NERRS,ioos:station:NOAA.NERRS:rkblhwq:1,2017-04-01T21:45:00Z,26.0257,-81.7332,1.45,7.2,1111122 
NERRS,ioos:station:NOAA.NERRS:rkblhwq:1,2017-04-01T22:45:00Z,26.0257,-81.7332,1.35,6.8,1111122 
NERRS,ioos:station:NOAA.NERRS:rkblhwq:1,2017-04-01T23:45:00Z,26.0257,-81.7332,1.22,6.6,1111122 
NERRS,ioos:station:NOAA.NERRS:rkblhwq:1,2017-04-02T00:45:00Z,26.0257,-81.7332,1.08,6.4,1111122 
NERRS,ioos:station:NOAA.NERRS:rkblhwq:1,2017-04-02T01:45:00Z,26.0257,-81.7332,0.94,5.9,1111122 
NERRS,ioos:station:NOAA.NERRS:rkblhwq:1,2017-04-02T02:45:00Z,26.0257,-81.7332,0.8,5.8,1111122 
NERRS,ioos:station:NOAA.NERRS:rkblhwq:1,2017-04-02T03:45:00Z,26.0257,-81.7332,0.68,5.4,1111122 
NERRS,ioos:station:NOAA.NERRS:rkblhwq:1,2017-04-02T04:45:00Z,26.0257,-81.7332,0.59,5.1,1111122 
NERRS,ioos:station:NOAA.NERRS:rkblhwq:1,2017-04-02T05:45:00Z,26.0257,-81.7332,0.62,5.2,1111122 
NERRS,ioos:station:NOAA.NERRS:rkblhwq:1,2017-04-02T06:45:00Z,26.0257,-81.7332,0.73,5.0,1111122 
NERRS,ioos:station:NOAA.NERRS:rkblhwq:1,2017-04-02T07:45:00Z,26.0257,-81.7332,0.86,5.1,1111122 
NERRS,ioos:station:NOAA.NERRS:rkblhwq:1,2017-04-02T08:45:00Z,26.0257,-81.7332,1.01,5.1,1111122 
NERRS,ioos:station:NOAA.NERRS:rkblhwq:1,2017-04-02T09:45:00Z,26.0257,-81.7332,1.15,4.7,1111122 
NERRS,ioos:station:NOAA.NERRS:rkblhwq:1,2017-04-02T10:45:00Z,26.0257,-81.7332,1.26,4.5,1111122 
NERRS,ioos:station:NOAA.NERRS:rkblhwq:1,2017-04-02T11:45:00Z,26.0257,-81.7332,1.25,4.5,1111122 
NERRS,ioos:station:NOAA.NERRS:rkblhwq:1,2017-04-02T12:45:00Z,26.0257,-81.7332,1.17,4.6,1111122 
NERRS,ioos:station:NOAA.NERRS:rkblhwq:1,2017-04-02T13:45:00Z,26.0257,-81.7332,1.09,4.5,1111122 
NERRS,ioos:station:NOAA.NERRS:rkblhwq:1,2017-04-02T14:45:00Z,26.0257,-81.7332,1.01,4.5,1111122 
NERRS,ioos:station:NOAA.NERRS:rkblhwq:1,2017-04-02T15:45:00Z,26.0257,-81.7332,0.97,4.5,1111122 
NERRS,ioos:station:NOAA.NERRS:rkblhwq:1,2017-04-02T16:45:00Z,26.0257,-81.7332,0.98,5.0,1111122 
NERRS,ioos:station:NOAA.NERRS:rkblhwq:1,2017-04-02T17:45:00Z,26.0257,-81.7332,1.04,6.0,1111122 
NERRS,ioos:station:NOAA.NERRS:rkblhwq:1,2017-04-02T18:45:00Z,26.0257,-81.7332,1.15,6.2,1111122 
NERRS,ioos:station:NOAA.NERRS:rkblhwq:1,2017-04-02T19:45:00Z,26.0257,-81.7332,1.26,6.4,1111122 
NERRS,ioos:station:NOAA.NERRS:rkblhwq:1,2017-04-02T20:45:00Z,26.0257,-81.7332,1.35,6.7,1111122 
NERRS,ioos:station:NOAA.NERRS:rkblhwq:1,2017-04-02T21:45:00Z,26.0257,-81.7332,1.42,6.6,1111122 
NERRS,ioos:station:NOAA.NERRS:rkblhwq:1,2017-04-02T22:45:00Z,26.0257,-81.7332,1.44,6.0,1111122 
NERRS,ioos:station:NOAA.NERRS:rkblhwq:1,2017-04-02T23:45:00Z,26.0257,-81.7332,1.36,6.6,1111122 
NERRS,ioos:station:NOAA.NERRS:rkblhwq:1,2017-04-03T00:45:00Z,26.0257,-81.7332,1.24,6.3,1111122 
NERRS,ioos:station:NOAA.NERRS:rkblhwq:1,2017-04-03T01:45:00Z,26.0257,-81.7332,1.11,5.9,1111122 
NERRS,ioos:station:NOAA.NERRS:rkblhwq:1,2017-04-03T02:45:00Z,26.0257,-81.7332,0.97,5.8,1111122 
NERRS,ioos:station:NOAA.NERRS:rkblhwq:1,2017-04-03T03:45:00Z,26.0257,-81.7332,0.83,5.5,1111122 
NERRS,ioos:station:NOAA.NERRS:rkblhwq:1,2017-04-03T05:45:00Z,26.0257,-81.7332,0.63,4.9,1111122 
NERRS,ioos:station:NOAA.NERRS:rkblhwq:1,2017-04-03T06:45:00Z,26.0257,-81.7332,0.65,5.0,1111122 
NERRS,ioos:station:NOAA.NERRS:rkblhwq:1,2017-04-03T07:45:00Z,26.0257,-81.7332,0.75,4.8,1111122 
NERRS,ioos:station:NOAA.NERRS:rkblhwq:1,2017-04-03T08:45:00Z,26.0257,-81.7332,0.88,4.9,1111122 
NERRS,ioos:station:NOAA.NERRS:rkblhwq:1,2017-04-03T09:45:00Z,26.0257,-81.7332,1.03,4.9,1111122 
NERRS,ioos:station:NOAA.NERRS:rkblhwq:1,2017-04-03T10:45:00Z,26.0257,-81.7332,1.17,4.8,1111122 
NERRS,ioos:station:NOAA.NERRS:rkblhwq:1,2017-04-03T12:45:00Z,26.0257,-81.7332,1.32,3.9,1111122 
NERRS,ioos:station:NOAA.NERRS:rkblhwq:1,2017-04-03T13:45:00Z,26.0257,-81.7332,1.26,5.0,1111122 
NERRS,ioos:station:NOAA.NERRS:rkblhwq:1,2017-04-03T14:45:00Z,26.0257,-81.7332,1.18,5.2,1111122 
NERRS,ioos:station:NOAA.NERRS:rkblhwq:1,2017-04-03T15:45:00Z,26.0257,-81.7332,1.11,5.7,1111122 
NERRS,ioos:station:NOAA.NERRS:rkblhwq:1,2017-04-03T16:45:00Z,26.0257,-81.7332,1.06,5.6,1111122 
NERRS,ioos:station:NOAA.NERRS:rkblhwq:1,2017-04-03T17:45:00Z,26.0257,-81.7332,1.06,6.0,1111122 
NERRS,ioos:station:NOAA.NERRS:rkblhwq:1,2017-04-03T18:45:00Z,26.0257,-81.7332,1.1,6.6,1111122 
NERRS,ioos:station:NOAA.NERRS:rkblhwq:1,2017-04-03T19:45:00Z,26.0257,-81.7332,1.18,6.9,1111122 
NERRS,ioos:station:NOAA.NERRS:rkblhwq:1,2017-04-03T20:45:00Z,26.0257,-81.7332,1.28,6.8,1111122 
NERRS,ioos:station:NOAA.NERRS:rkblhwq:1,2017-04-03T21:45:00Z,26.0257,-81.7332,1.38,6.3,1111122 
NERRS,ioos:station:NOAA.NERRS:rkblhwq:1,2017-04-03T23:45:00Z,26.0257,-81.7332,1.38,6.7,1111122 
NERRS,ioos:station:NOAA.NERRS:rkblhwq:1,2017-04-04T00:45:00Z,26.0257,-81.7332,1.32,6.4,1111122 
NERRS,ioos:station:NOAA.NERRS:rkblhwq:1,2017-04-04T01:45:00Z,26.0257,-81.7332,1.23,6.3,1111122 
NERRS,ioos:station:NOAA.NERRS:rkblhwq:1,2017-04-04T02:45:00Z,26.0257,-81.7332,1.12,5.9,1111122 
NERRS,ioos:station:NOAA.NERRS:rkblhwq:1,2017-04-04T03:45:00Z,26.0257,-81.7332,0.99,5.7,1111122 
NERRS,ioos:station:NOAA.NERRS:rkblhwq:1,2017-04-04T04:45:00Z,26.0257,-81.7332,0.87,5.5,1111122 
NERRS,ioos:station:NOAA.NERRS:rkblhwq:1,2017-04-04T05:45:00Z,26.0257,-81.7332,0.77,5.3,1111122 
NERRS,ioos:station:NOAA.NERRS:rkblhwq:1,2017-04-04T06:45:00Z,26.0257,-81.7332,0.69,5.0,1111122 
NERRS,ioos:station:NOAA.NERRS:rkblhwq:1,2017-04-04T07:45:00Z,26.0257,-81.7332,0.7,5.1,1111122 
NERRS,ioos:station:NOAA.NERRS:rkblhwq:1,2017-04-04T08:45:00Z,26.0257,-81.7332,0.79,4.9,1111122 
NERRS,ioos:station:NOAA.NERRS:rkblhwq:1,2017-04-04T09:45:00Z,26.0257,-81.7332,0.91,5.0,1111122 
NERRS,ioos:station:NOAA.NERRS:rkblhwq:1,2017-04-04T10:45:00Z,26.0257,-81.7332,1.04,4.8,1111122 
NERRS,ioos:station:NOAA.NERRS:rkblhwq:1,2017-04-04T11:45:00Z,26.0257,-81.7332,1.16,4.8,1111122 
NERRS,ioos:station:NOAA.NERRS:rkblhwq:1,2017-04-04T12:45:00Z,26.0257,-81.7332,1.27,5.0,1111122 
NERRS,ioos:station:NOAA.NERRS:rkblhwq:1,2017-04-04T13:45:00Z,26.0257,-81.7332,1.35,4.3,1111122 
NERRS,ioos:station:NOAA.NERRS:rkblhwq:1,2017-04-04T14:45:00Z,26.0257,-81.7332,1.35,5.1,1111122 
NERRS,ioos:station:NOAA.NERRS:rkblhwq:1,2017-04-04T15:45:00Z,26.0257,-81.7332,1.29,5.5,1111122 
NERRS,ioos:station:NOAA.NERRS:rkblhwq:1,2017-04-04T16:45:00Z,26.0257,-81.7332,1.21,5.9,1111122 
NERRS,ioos:station:NOAA.NERRS:rkblhwq:1,2017-04-04T17:45:00Z,26.0257,-81.7332,1.14,5.8,1111122 
NERRS,ioos:station:NOAA.NERRS:rkblhwq:1,2017-04-04T18:45:00Z,26.0257,-81.7332,1.11,6.2,1111122 
NERRS,ioos:station:NOAA.NERRS:rkblhwq:1,2017-04-04T19:45:00Z,26.0257,-81.7332,1.05,6.3,1111122 
NERRS,ioos:station:NOAA.NERRS:rkblhwq:1,2017-04-04T20:45:00Z,26.0257,-81.7332,1.07,6.4,1111122 
NERRS,ioos:station:NOAA.NERRS:rkblhwq:1,2017-04-04T21:45:00Z,26.0257,-81.7332,1.16,6.5,1111122 
NERRS,ioos:station:NOAA.NERRS:rkblhwq:1,2017-04-06T13:45:00Z,26.0257,-81.7332,3.68,4.7,1111122 
NERRS,ioos:station:NOAA.NERRS:rkblhwq:1,2017-04-06T14:45:00Z,26.0257,-81.7332,4.13,5.1,1111122 
NERRS,ioos:station:NOAA.NERRS:rkblhwq:1,2017-04-06T15:45:00Z,26.0257,-81.7332,4.58,5.1,1111122 
NERRS,ioos:station:NOAA.NERRS:rkblhwq:1,2017-04-06T16:45:00Z,26.0257,-81.7332,4.78,5.0,1111122 
NERRS,ioos:station:NOAA.NERRS:rkblhwq:1,2017-04-06T17:45:00Z,26.0257,-81.7332,4.4,5.3,1111122 
NERRS,ioos:station:NOAA.NERRS:rkblhwq:1,2017-04-06T18:45:00Z,26.0257,-81.7332,3.81,5.6,1111122 
NERRS,ioos:station:NOAA.NERRS:rkblhwq:1,2017-04-06T19:45:00Z,26.0257,-81.7332,3.34,5.7,1111122 
NERRS,ioos:station:NOAA.NERRS:rkblhwq:1,2017-04-06T20:45:00Z,26.0257,-81.7332,3.01,6.0,1111122 
NERRS,ioos:station:NOAA.NERRS:rkblhwq:1,2017-04-06T21:45:00Z,26.0257,-81.7332,2.9,5.6,1111122 
NERRS,ioos:station:NOAA.NERRS:rkblhwq:1,2017-04-06T22:45:00Z,26.0257,-81.7332,2.93,5.6,1111122 
NERRS,ioos:station:NOAA.NERRS:rkblhwq:1,2017-04-06T23:45:00Z,26.0257,-81.7332,3.15,5.7,1111122 
NERRS,ioos:station:NOAA.NERRS:rkblhwq:1,2017-04-07T00:45:00Z,26.0257,-81.7332,3.48,5.7,1111122 
NERRS,ioos:station:NOAA.NERRS:rkblhwq:1,2017-04-07T01:45:00Z,26.0257,-81.7332,3.79,5.5,1111122 
NERRS,ioos:station:NOAA.NERRS:rkblhwq:1,2017-04-07T02:45:00Z,26.0257,-81.7332,4.03,5.5,1111122 
NERRS,ioos:station:NOAA.NERRS:rkblhwq:1,2017-04-07T03:45:00Z,26.0257,-81.7332,4.22,4.6,1111122 
NERRS,ioos:station:NOAA.NERRS:rkblhwq:1,2017-04-07T04:45:00Z,26.0257,-81.7332,4.06,5.5,1111122 
NERRS,ioos:station:NOAA.NERRS:rkblhwq:1,2017-04-07T05:45:00Z,26.0257,-81.7332,3.78,5.3,1111122 
NERRS,ioos:station:NOAA.NERRS:rkblhwq:1,2017-04-07T06:45:00Z,26.0257,-81.7332,3.4,5.2,1111122 
NERRS,ioos:station:NOAA.NERRS:rkblhwq:1,2017-04-07T07:45:00Z,26.0257,-81.7332,3.02,4.9,1111122 
NERRS,ioos:station:NOAA.NERRS:rkblhwq:1,2017-04-07T08:45:00Z,26.0257,-81.7332,2.62,4.8,1111122 
NERRS,ioos:station:NOAA.NERRS:rkblhwq:1,2017-04-07T09:45:00Z,26.0257,-81.7332,2.27,4.7,1111122 
NERRS,ioos:station:NOAA.NERRS:rkblhwq:1,2017-04-07T10:45:00Z,26.0257,-81.7332,2.07,4.5,1111122 
NERRS,ioos:station:NOAA.NERRS:rkblhwq:1,2017-04-07T11:45:00Z,26.0257,-81.7332,2.25,4.6,1111122 
NERRS,ioos:station:NOAA.NERRS:rkblhwq:1,2017-04-07T12:45:00Z,26.0257,-81.7332,2.57,4.8,1111122 
NERRS,ioos:station:NOAA.NERRS:rkblhwq:1,2017-04-07T13:45:00Z,26.0257,-81.7332,2.95,5.3,1111122 
NERRS,ioos:station:NOAA.NERRS:rkblhwq:1,2017-04-07T14:45:00Z,26.0257,-81.7332,3.36,5.8,1111122 
NERRS,ioos:station:NOAA.NERRS:rkblhwq:1,2017-04-07T15:45:00Z,26.0257,-81.7332,3.73,6.0,1111122 
NERRS,ioos:station:NOAA.NERRS:rkblhwq:1,2017-04-07T16:45:00Z,26.0257,-81.7332,3.9,6.0,1111122 
NERRS,ioos:station:NOAA.NERRS:rkblhwq:1,2017-04-07T17:45:00Z,26.0257,-81.7332,3.66,6.7,1111122 
NERRS,ioos:station:NOAA.NERRS:rkblhwq:1,2017-04-07T18:45:00Z,26.0257,-81.7332,3.36,7.0,1111122 
NERRS,ioos:station:NOAA.NERRS:rkblhwq:1,2017-04-07T19:45:00Z,26.0257,-81.7332,3.07,7.2,1111122 
NERRS,ioos:station:NOAA.NERRS:rkblhwq:1,2017-04-07T20:45:00Z,26.0257,-81.7332,2.75,7.3,1111122 
NERRS,ioos:station:NOAA.NERRS:rkblhwq:1,2017-04-07T21:45:00Z,26.0257,-81.7332,2.48,7.3,1111122 
NERRS,ioos:station:NOAA.NERRS:rkblhwq:1,2017-04-07T22:45:00Z,26.0257,-81.7332,2.4,6.6,1111122 
NERRS,ioos:station:NOAA.NERRS:rkblhwq:1,2017-04-07T23:45:00Z,26.0257,-81.7332,2.6,6.8,1111122 
NERRS,ioos:station:NOAA.NERRS:rkblhwq:1,2017-04-08T00:45:00Z,26.0257,-81.7332,2.96,6.6,1111122 
NERRS,ioos:station:NOAA.NERRS:rkblhwq:1,2017-04-08T01:45:00Z,26.0257,-81.7332,3.38,6.6,1111122 
NERRS,ioos:station:NOAA.NERRS:rkblhwq:1,2017-04-08T02:45:00Z,26.0257,-81.7332,3.82,6.4,1111122 
NERRS,ioos:station:NOAA.NERRS:rkblhwq:1,2017-04-08T03:45:00Z,26.0257,-81.7332,4.12,6.3,1111122 
NERRS,ioos:station:NOAA.NERRS:rkblhwq:1,2017-04-08T04:45:00Z,26.0257,-81.7332,4.18,5.9,1111122 
NERRS,ioos:station:NOAA.NERRS:rkblhwq:1,2017-04-08T05:45:00Z,26.0257,-81.7332,3.88,6.2,1111122 
NERRS,ioos:station:NOAA.NERRS:rkblhwq:1,2017-04-08T06:45:00Z,26.0257,-81.7332,3.49,5.8,1111122 
NERRS,ioos:station:NOAA.NERRS:rkblhwq:1,2017-04-08T07:45:00Z,26.0257,-81.7332,3.09,5.7,1111122 
NERRS,ioos:station:NOAA.NERRS:rkblhwq:1,2017-04-08T08:45:00Z,26.0257,-81.7332,2.69,5.5,1111122 
NERRS,ioos:station:NOAA.NERRS:rkblhwq:1,2017-04-08T09:45:00Z,26.0257,-81.7332,2.32,5.3,1111122 
NERRS,ioos:station:NOAA.NERRS:rkblhwq:1,2017-04-08T10:45:00Z,26.0257,-81.7332,2.04,5.2,1111122 
NERRS,ioos:station:NOAA.NERRS:rkblhwq:1,2017-04-08T11:45:00Z,26.0257,-81.7332,2.04,5.0,1111122 
NERRS,ioos:station:NOAA.NERRS:rkblhwq:1,2017-04-08T12:45:00Z,26.0257,-81.7332,2.39,5.3,1111122 
NERRS,ioos:station:NOAA.NERRS:rkblhwq:1,2017-04-08T13:45:00Z,26.0257,-81.7332,2.84,5.6,1111122 
NERRS,ioos:station:NOAA.NERRS:rkblhwq:1,2017-04-08T14:45:00Z,26.0257,-81.7332,3.35,6.1,1111122 
NERRS,ioos:station:NOAA.NERRS:rkblhwq:1,2017-04-08T15:45:00Z,26.0257,-81.7332,3.87,6.1,1111122 
NERRS,ioos:station:NOAA.NERRS:rkblhwq:1,2017-04-08T16:45:00Z,26.0257,-81.7332,4.22,6.3,1111122 
NERRS,ioos:station:NOAA.NERRS:rkblhwq:1,2017-04-08T17:45:00Z,26.0257,-81.7332,4.18,6.8,1111122 
NERRS,ioos:station:NOAA.NERRS:rkblhwq:1,2017-04-08T18:45:00Z,26.0257,-81.7332,3.8,7.0,1111122 
NERRS,ioos:station:NOAA.NERRS:rkblhwq:1,2017-04-08T19:45:00Z,26.0257,-81.7332,3.41,7.2,1111122 
NERRS,ioos:station:NOAA.NERRS:rkblhwq:1,2017-04-08T20:45:00Z,26.0257,-81.7332,3.04,7.4,1111122 
NERRS,ioos:station:NOAA.NERRS:rkblhwq:1,2017-04-08T21:45:00Z,26.0257,-81.7332,2.7,7.3,1111122 
NERRS,ioos:station:NOAA.NERRS:rkblhwq:1,2017-04-08T22:45:00Z,26.0257,-81.7332,2.42,7.1,1111122 
NERRS,ioos:station:NOAA.NERRS:rkblhwq:1,2017-04-08T23:45:00Z,26.0257,-81.7332,2.33,5.8,1111122 
NERRS,ioos:station:NOAA.NERRS:rkblhwq:1,2017-04-09T00:45:00Z,26.0257,-81.7332,2.6,6.7,1111122 
NERRS,ioos:station:NOAA.NERRS:rkblhwq:1,2017-04-09T01:45:00Z,26.0257,-81.7332,3.01,6.7,1111122 
NERRS,ioos:station:NOAA.NERRS:rkblhwq:1,2017-04-09T02:45:00Z,26.0257,-81.7332,3.51,6.6,1111122 
NERRS,ioos:station:NOAA.NERRS:rkblhwq:1,2017-04-09T03:45:00Z,26.0257,-81.7332,4.01,6.3,1111122 
NERRS,ioos:station:NOAA.NERRS:rkblhwq:1,2017-04-09T04:45:00Z,26.0257,-81.7332,4.3,6.0,1111122 
NERRS,ioos:station:NOAA.NERRS:rkblhwq:1,2017-04-09T05:45:00Z,26.0257,-81.7332,4.19,6.3,1111122 
NERRS,ioos:station:NOAA.NERRS:rkblhwq:1,2017-04-09T06:45:00Z,26.0257,-81.7332,3.78,6.1,1111122 
NERRS,ioos:station:NOAA.NERRS:rkblhwq:1,2017-04-09T07:45:00Z,26.0257,-81.7332,3.35,5.9,1111122 
NERRS,ioos:station:NOAA.NERRS:rkblhwq:1,2017-04-09T08:45:00Z,26.0257,-81.7332,2.92,5.7,1111122 
NERRS,ioos:station:NOAA.NERRS:rkblhwq:1,2017-04-09T09:45:00Z,26.0257,-81.7332,2.52,5.6,1111122 
NERRS,ioos:station:NOAA.NERRS:rkblhwq:1,2017-04-09T10:45:00Z,26.0257,-81.7332,2.19,5.4,1111122 
NERRS,ioos:station:NOAA.NERRS:rkblhwq:1,2017-04-09T11:45:00Z,26.0257,-81.7332,1.96,5.3,1111122 
NERRS,ioos:station:NOAA.NERRS:rkblhwq:1,2017-04-09T12:45:00Z,26.0257,-81.7332,2.11,5.5,1111122 
NERRS,ioos:station:NOAA.NERRS:rkblhwq:1,2017-04-09T13:45:00Z,26.0257,-81.7332,2.54,5.8,1111122 
NERRS,ioos:station:NOAA.NERRS:rkblhwq:1,2017-04-09T14:45:00Z,26.0257,-81.7332,3.01,6.3,1111122 
NERRS,ioos:station:NOAA.NERRS:rkblhwq:1,2017-04-09T15:45:00Z,26.0257,-81.7332,3.51,6.5,1111122 
NERRS,ioos:station:NOAA.NERRS:rkblhwq:1,2017-04-09T16:45:00Z,26.0257,-81.7332,3.98,6.4,1111122 
NERRS,ioos:station:NOAA.NERRS:rkblhwq:1,2017-04-09T17:45:00Z,26.0257,-81.7332,4.32,6.6,1111122 
NERRS,ioos:station:NOAA.NERRS:rkblhwq:1,2017-04-09T18:45:00Z,26.0257,-81.7332,4.32,6.9,1111122 
NERRS,ioos:station:NOAA.NERRS:rkblhwq:1,2017-04-09T19:45:00Z,26.0257,-81.7332,3.9,7.0,1111122 
NERRS,ioos:station:NOAA.NERRS:rkblhwq:1,2017-04-09T20:45:00Z,26.0257,-81.7332,3.45,7.0,1111122 
NERRS,ioos:station:NOAA.NERRS:rkblhwq:1,2017-04-09T21:45:00Z,26.0257,-81.7332,3.03,6.9,1111122 
NERRS,ioos:station:NOAA.NERRS:rkblhwq:1,2017-04-09T22:45:00Z,26.0257,-81.7332,2.66,6.7,1111122 
NERRS,ioos:station:NOAA.NERRS:rkblhwq:1,2017-04-09T23:45:00Z,26.0257,-81.7332,2.38,6.5,1111122 
NERRS,ioos:station:NOAA.NERRS:rkblhwq:1,2017-04-10T00:45:00Z,26.0257,-81.7332,2.44,6.3,1111122 
NERRS,ioos:station:NOAA.NERRS:rkblhwq:1,2017-04-10T01:45:00Z,26.0257,-81.7332,2.84,6.2,1111122 
NERRS,ioos:station:NOAA.NERRS:rkblhwq:1,2017-04-10T02:45:00Z,26.0257,-81.7332,3.31,6.2,1111122 
NERRS,ioos:station:NOAA.NERRS:rkblhwq:1,2017-04-10T03:45:00Z,26.0257,-81.7332,3.8,6.1,1111122 
NERRS,ioos:station:NOAA.NERRS:rkblhwq:1,2017-04-10T04:45:00Z,26.0257,-81.7332,4.24,5.9,1111122 
NERRS,ioos:station:NOAA.NERRS:rkblhwq:1,2017-04-10T05:45:00Z,26.0257,-81.7332,4.44,5.5,1111122 
NERRS,ioos:station:NOAA.NERRS:rkblhwq:1,2017-04-10T06:45:00Z,26.0257,-81.7332,4.24,6.1,1111122 
NERRS,ioos:station:NOAA.NERRS:rkblhwq:1,2017-04-10T07:45:00Z,26.0257,-81.7332,3.83,5.9,1111122 
NERRS,ioos:station:NOAA.NERRS:rkblhwq:1,2017-04-10T08:45:00Z,26.0257,-81.7332,3.42,5.7,1111122 
NERRS,ioos:station:NOAA.NERRS:rkblhwq:1,2017-04-10T09:45:00Z,26.0257,-81.7332,3.03,5.4,1111122 
NERRS,ioos:station:NOAA.NERRS:rkblhwq:1,2017-04-10T10:45:00Z,26.0257,-81.7332,2.66,5.4,1111122 
NERRS,ioos:station:NOAA.NERRS:rkblhwq:1,2017-04-10T11:45:00Z,26.0257,-81.7332,2.38,5.1,1111122 
NERRS,ioos:station:NOAA.NERRS:rkblhwq:1,2017-04-10T12:45:00Z,26.0257,-81.7332,2.5,5.5,1111122 
NERRS,ioos:station:NOAA.NERRS:rkblhwq:1,2017-04-10T13:45:00Z,26.0257,-81.7332,2.96,5.6,1111122 
NERRS,ioos:station:NOAA.NERRS:rkblhwq:1,2017-04-10T14:45:00Z,26.0257,-81.7332,3.53,6.0,1111122 
NERRS,ioos:station:NOAA.NERRS:rkblhwq:1,2017-04-10T15:45:00Z,26.0257,-81.7332,4.08,6.1,1111122 
NERRS,ioos:station:NOAA.NERRS:rkblhwq:1,2017-04-10T16:45:00Z,26.0257,-81.7332,4.52,6.3,1111122 
NERRS,ioos:station:NOAA.NERRS:rkblhwq:1,2017-04-10T17:45:00Z,26.0257,-81.7332,4.73,5.9,1111122 
NERRS,ioos:station:NOAA.NERRS:rkblhwq:1,2017-04-10T18:45:00Z,26.0257,-81.7332,4.5,6.7,1111122 
NERRS,ioos:station:NOAA.NERRS:rkblhwq:1,2017-04-10T19:45:00Z,26.0257,-81.7332,4.08,6.8,1111122 
NERRS,ioos:station:NOAA.NERRS:rkblhwq:1,2017-04-10T20:45:00Z,26.0257,-81.7332,3.59,6.7,1111122 
NERRS,ioos:station:NOAA.NERRS:rkblhwq:1,2017-04-10T21:45:00Z,26.0257,-81.7332,3.11,6.8,1111122 
NERRS,ioos:station:NOAA.NERRS:rkblhwq:1,2017-04-10T22:45:00Z,26.0257,-81.7332,2.68,6.6,1111122 
NERRS,ioos:station:NOAA.NERRS:rkblhwq:1,2017-04-10T23:45:00Z,26.0257,-81.7332,2.32,6.4,1111122 
NERRS,ioos:station:NOAA.NERRS:rkblhwq:1,2017-04-11T00:45:00Z,26.0257,-81.7332,2.14,5.9,1111122 
NERRS,ioos:station:NOAA.NERRS:rkblhwq:1,2017-04-11T01:45:00Z,26.0257,-81.7332,2.39,6.1,1111122 
NERRS,ioos:station:NOAA.NERRS:rkblhwq:1,2017-04-11T02:45:00Z,26.0257,-81.7332,2.81,5.9,1111122 
NERRS,ioos:station:NOAA.NERRS:rkblhwq:1,2017-04-11T03:45:00Z,26.0257,-81.7332,3.27,6.0,1111122 
NERRS,ioos:station:NOAA.NERRS:rkblhwq:1,2017-04-11T04:45:00Z,26.0257,-81.7332,3.75,5.7,1111122 
NERRS,ioos:station:NOAA.NERRS:rkblhwq:1,2017-04-11T05:45:00Z,26.0257,-81.7332,4.13,5.7,1111122 
NERRS,ioos:station:NOAA.NERRS:rkblhwq:1,2017-04-11T06:45:00Z,26.0257,-81.7332,4.24,5.2,1111122 
NERRS,ioos:station:NOAA.NERRS:rkblhwq:1,2017-04-11T07:45:00Z,26.0257,-81.7332,3.93,5.9,1111122 
NERRS,ioos:station:NOAA.NERRS:rkblhwq:1,2017-04-11T08:45:00Z,26.0257,-81.7332,3.53,5.5,1111122 
NERRS,ioos:station:NOAA.NERRS:rkblhwq:1,2017-04-11T09:45:00Z,26.0257,-81.7332,3.15,5.4,1111122 
NERRS,ioos:station:NOAA.NERRS:rkblhwq:1,2017-04-11T10:45:00Z,26.0257,-81.7332,2.8,5.2,1111122 
NERRS,ioos:station:NOAA.NERRS:rkblhwq:1,2017-04-11T11:45:00Z,26.0257,-81.7332,2.51,5.0,1111122 
NERRS,ioos:station:NOAA.NERRS:rkblhwq:1,2017-04-11T12:45:00Z,26.0257,-81.7332,2.49,5.0,1111122 
NERRS,ioos:station:NOAA.NERRS:rkblhwq:1,2017-04-11T13:45:00Z,26.0257,-81.7332,2.84,5.6,1111122 
NERRS,ioos:station:NOAA.NERRS:rkblhwq:1,2017-04-11T14:45:00Z,26.0257,-81.7332,3.33,5.8,1111122 
NERRS,ioos:station:NOAA.NERRS:rkblhwq:1,2017-04-11T15:45:00Z,26.0257,-81.7332,3.84,6.3,1111122 
NERRS,ioos:station:NOAA.NERRS:rkblhwq:1,2017-04-11T16:45:00Z,26.0257,-81.7332,4.34,6.2,1111122 
NERRS,ioos:station:NOAA.NERRS:rkblhwq:1,2017-04-11T17:45:00Z,26.0257,-81.7332,4.73,6.1,1111122 
NERRS,ioos:station:NOAA.NERRS:rkblhwq:1,2017-04-11T18:45:00Z,26.0257,-81.7332,4.88,6.3,1111122 
NERRS,ioos:station:NOAA.NERRS:rkblhwq:1,2017-04-11T19:45:00Z,26.0257,-81.7332,4.62,7.0,1111122 
NERRS,ioos:station:NOAA.NERRS:rkblhwq:1,2017-04-11T20:45:00Z,26.0257,-81.7332,4.18,7.1,1111122 
NERRS,ioos:station:NOAA.NERRS:rkblhwq:1,2017-04-11T21:45:00Z,26.0257,-81.7332,3.69,6.9,1111122 
NERRS,ioos:station:NOAA.NERRS:rkblhwq:1,2017-04-11T22:45:00Z,26.0257,-81.7332,3.2,6.8,1111122 
NERRS,ioos:station:NOAA.NERRS:rkblhwq:1,2017-04-11T23:45:00Z,26.0257,-81.7332,2.75,6.5,1111122 
NERRS,ioos:station:NOAA.NERRS:rkblhwq:1,2017-04-12T00:45:00Z,26.0257,-81.7332,2.41,6.2,1111122 
NERRS,ioos:station:NOAA.NERRS:rkblhwq:1,2017-04-12T01:45:00Z,26.0257,-81.7332,2.32,5.2,1111122 
NERRS,ioos:station:NOAA.NERRS:rkblhwq:1,2017-04-12T02:45:00Z,26.0257,-81.7332,2.65,5.7,1111122 
NERRS,ioos:station:NOAA.NERRS:rkblhwq:1,2017-04-12T03:45:00Z,26.0257,-81.7332,3.08,5.7,1111122 
NERRS,ioos:station:NOAA.NERRS:rkblhwq:1,2017-04-12T04:45:00Z,26.0257,-81.7332,3.6,5.8,1111122 
NERRS,ioos:station:NOAA.NERRS:rkblhwq:1,2017-04-12T05:45:00Z,26.0257,-81.7332,4.08,5.3,1111122 
NERRS,ioos:station:NOAA.NERRS:rkblhwq:1,2017-04-12T06:45:00Z,26.0257,-81.7332,4.39,5.4,1111122 
NERRS,ioos:station:NOAA.NERRS:rkblhwq:1,2017-04-12T07:45:00Z,26.0257,-81.7332,4.35,5.4,1111122 
NERRS,ioos:station:NOAA.NERRS:rkblhwq:1,2017-04-12T08:45:00Z,26.0257,-81.7332,3.94,5.6,1111122 
NERRS,ioos:station:NOAA.NERRS:rkblhwq:1,2017-04-12T09:45:00Z,26.0257,-81.7332,3.52,5.5,1111122 
NERRS,ioos:station:NOAA.NERRS:rkblhwq:1,2017-04-12T10:45:00Z,26.0257,-81.7332,3.16,5.4,1111122 
NERRS,ioos:station:NOAA.NERRS:rkblhwq:1,2017-04-12T11:45:00Z,26.0257,-81.7332,2.85,5.1,1111122 
NERRS,ioos:station:NOAA.NERRS:rkblhwq:1,2017-04-12T12:45:00Z,26.0257,-81.7332,2.7,5.1,1111122 
NERRS,ioos:station:NOAA.NERRS:rkblhwq:1,2017-04-12T13:45:00Z,26.0257,-81.7332,2.92,5.4,1111122 
NERRS,ioos:station:NOAA.NERRS:rkblhwq:1,2017-04-12T14:45:00Z,26.0257,-81.7332,3.33,5.7,1111122 
NERRS,ioos:station:NOAA.NERRS:rkblhwq:1,2017-04-12T15:45:00Z,26.0257,-81.7332,3.81,6.1,1111122 
NERRS,ioos:station:NOAA.NERRS:rkblhwq:1,2017-04-12T16:45:00Z,26.0257,-81.7332,4.32,6.2,1111122 
NERRS,ioos:station:NOAA.NERRS:rkblhwq:1,2017-04-12T17:45:00Z,26.0257,-81.7332,4.68,5.7,1111122 
NERRS,ioos:station:NOAA.NERRS:rkblhwq:1,2017-04-12T18:45:00Z,26.0257,-81.7332,4.81,6.0,1111122 
NERRS,ioos:station:NOAA.NERRS:rkblhwq:1,2017-04-12T19:45:00Z,26.0257,-81.7332,4.55,6.5,1111122 
NERRS,ioos:station:NOAA.NERRS:rkblhwq:1,2017-04-12T20:45:00Z,26.0257,-81.7332,4.12,6.8,1111122 
NERRS,ioos:station:NOAA.NERRS:rkblhwq:1,2017-04-12T21:45:00Z,26.0257,-81.7332,3.66,6.8,1111122 
NERRS,ioos:station:NOAA.NERRS:rkblhwq:1,2017-04-12T22:45:00Z,26.0257,-81.7332,3.18,6.6,1111122 
NERRS,ioos:station:NOAA.NERRS:rkblhwq:1,2017-04-12T23:45:00Z,26.0257,-81.7332,2.73,6.4,1111122 
NERRS,ioos:station:NOAA.NERRS:rkblhwq:1,2017-04-13T00:45:00Z,26.0257,-81.7332,2.35,6.0,1111122 
NERRS,ioos:station:NOAA.NERRS:rkblhwq:1,2017-04-13T01:45:00Z,26.0257,-81.7332,2.07,5.8,1111122 
NERRS,ioos:station:NOAA.NERRS:rkblhwq:1,2017-04-13T02:45:00Z,26.0257,-81.7332,2.11,5.9,1111122 